HTV-8 (KOUNOTORI 8) (44546 NORAD) Tracking and Keplerian Element Data

This shows tracking and keplerian element data for the satellite.

Feedback or suggestion? Click here.




ElementValue
Catalog44546
NameHTV-8 (KOUNOTORI 8)
Epoch Orbit610
Epoch Day307.01850943
Epoch Year2019
RAAN32.8503
Inclination51.6419
Eccentricity0.0190927
Argument of Perigee296.2042
Mean Anonmoly253.4858
Mean Motion16.01011909
Decay Rate0.2397419
L11 44546U 19062A 19307.01850943 .23974190 12480-4 23615-2 0 9994
L22 44546 51.6419 32.8503 0190927 296.2042 253.4858 16.01011909 6105

Live tracking and technical data element details for HTV-8 (KOUNOTORI 8) (NORAD 44546). HTV-8 (KOUNOTORI 8) can be tracked NOW for your location showing map with azimuth and elevation plus other details from your city location.

Track the satellite on the map from your city or location and see movement details for azimuth, elevation, latitude, longitude, range, height, and movement on the map or in text.







IsCatalogInMostPopularTable: catalog: 44546, numindb: 14
Update: records affected: 1



GetName: 44546 HTV-8 (KOUNOTORI 8)

Hit Count: updated at: Sun, 17 Nov 2019 15:43:59 GMT